Home   Weather   Hard   Past weeks

Flag for Austria Past Weather in Hard, Vorarlberg, Austria — Yesterday and Last 2 Weeks

Now
69 °F

Mild.


Feels Like: 69 °F
Forecast: 63 / 78 °F
Wind: 3 mph from South

Location: Bregenz

Current Time: Aug 31, 2016 at 11:53:09 PM

Latest Report: Aug 31, 2016 at 11:00 PM


Visibility: N/A

Pressure: 30.11 "Hg

Humidity: 79%

Dew Point: 63 °F

Location of HardLocation

Past Weather in Hard — Graph

°F

Hard Temperature Yesterday

Maximum temperature yesterday: 78 °F (at 4:00 PM)
Minimum temperature yesterday: 60 °F (at 6:00 AM)
Average temperature yesterday: 68 °F

High & Low Weather Summary for the Past Weeks

 TemperatureHumidityPressure
High89 °F (Aug 26, 6:00 PM)97% (Aug 30, 4:00 AM)30.40 "Hg (Aug 30, 4:00 AM)
Low53 °F (Aug 23, 6:00 AM)38% (Aug 22, 3:00 PM)29.79 "Hg (Aug 17, 7:00 PM)
Average68 °F75%30.06 "Hg
* Reported Aug 16 10:00 PM — Aug 31 10:00 PM, Hard, Weather by CustomWeather, © 2016

Note: Actual official high and low records may vary slightly from our data, if they occured in-between our weather recording intervals... More about our weather records

Advertising

Hard Weather History for the Previous 24 Hours

Scroll right to see more
 ConditionsComfort  
Time TempWeatherWind HumidityBarometerVisibility
10:00 PM
Wed, Aug 31
66 °FMild.1 mph84%30.12 "HgN/A
9:00 PM67 °FMild.2 mph81%30.10 "HgN/A
8:00 PM71 °FMild.2 mph78%30.07 "HgN/A
7:00 PM77 °FMild.No wind65%30.05 "HgN/A
6:00 PM79 °FWarm.2 mph51%30.06 "HgN/A
5:00 PM79 °FWarm.1 mph50%30.06 "HgN/A
4:00 PM78 °FWarm.1 mph57%30.07 "HgN/A
3:00 PM76 °FMild.1 mph61%30.09 "HgN/A
2:00 PM72 °FPassing clouds.2 mph72%30.11 "Hg4 mi
1:00 PM69 °FMild.2 mph74%30.13 "HgN/A
12:00 PM68 °FMild.2 mph76%30.14 "HgN/A
11:00 AM67 °FPassing clouds.2 mph80%30.14 "Hg4 mi
10:00 AM67 °FMild.1 mph79%30.13 "HgN/A
9:00 AM64 °FMild.1 mph86%30.14 "HgN/A
8:00 AM63 °FOvercast.1 mph92%30.13 "Hg3 mi
7:00 AM61 °FCool.1 mph96%30.13 "HgN/A
6:00 AM60 °FCool.1 mph96%30.13 "HgN/A
5:00 AM61 °FCool.No wind95%30.12 "HgN/A
4:00 AM62 °FCool.1 mph94%30.11 "HgN/A
3:00 AM62 °FCool.1 mph94%30.10 "HgN/A
2:00 AM62 °FCool.1 mph94%30.11 "HgN/A
1:00 AM63 °FMild.1 mph92%30.11 "HgN/A
12:00 AM64 °FMild.1 mph90%30.12 "HgN/A
11:00 PM
Tue, Aug 30
65 °FMild.2 mph85%30.12 "HgN/A
Weather by CustomWeather, © 2016

See weather overviewHow to use our weather pages